Wind_Speed
24 25 24 22 22 20 19 17 14 12 11 9 9 8 7 6 7 8 8 7 6 6 6 7 8 8 8 8 10 11 13 15 18 20 22 24 26 27 27 27 26 24 21 18 16 14 13 12 10 8 6 4 2 2 2 1 1 1 0 2 5 7 6 6 5 6 5 2 4 5 6 5 4 4 5 8 8 6 4 4 5 5 4 4 5 5 6 8
24 24 23 22 21 20 18 17 14 12 10 9 9 9 7 6 7 8 8 7 7 7 8 9 9 8 8 9 11 13 16 20 22 24 26 27 28 27 25 22 19 17 14 12 12 13 13 11 9 7 6 4 2 2 3 3 2 1 1 4 8 9 9 9 7 7 6 3 4 5 6 5 4 5 7 8 8 7 6 6 7 7 6 6 6 6 7 9
24 23 22 21 20 19 18 17 14 11 9 9 9 8 7 6 7 8 8 7 7 8 9 10 9 9 9 11 13 16 20 23 26 27 27 27 25 23 20 17 14 11 8 8 9 12 11 9 7 7 6 4 4 4 2 2 3 3 2 6 12 11 10 11 8 8 8 6 5 5 6 5 4 5 6 6 7 6 6 8 10 8 8 7 7 7 8 9
23 23 22 20 19 18 17 16 15 12 9 8 8 7 7 7 7 7 7 7 8 9 10 11 10 10 10 13 16 20 24 25 27 27 26 25 23 20 18 15 12 9 7 7 8 9 9 7 5 5 6 4 5 5 3 2 4 8 10 11 13 9 9 11 9 8 7 6 5 5 6 6 5 5 4 4 5 5 7 9 9 8 8 8 8 8 9 9
22 22 21 19 18 17 16 15 14 12 9 8 7 7 7 7 7 7 7 8 9 10 12 12 11 10 11 14 19 24 25 25 26 26 25 23 20 18 16 14 12 10 10 10 9 8 7 4 3 4 4 4 5 5 6 5 3 9 15 14 12 8 8 11 9 8 7 5 5 4 5 5 5 5 4 4 4 7 9 9 9 8 7 8 8 9 10 10
21 20 19 18 17 16 15 14 14 12 9 8 7 6 6 6 7 8 8 9 11 13 13 12 11 11 11 15 22 26 24 24 25 24 22 20 17 15 14 13 11 10 9 9 8 7 6 4 3 3 3 5 5 6 8 8 3 7 16 15 13 10 10 12 9 8 7 5 5 4 5 6 6 6 7 7 7 10 10 9 8 8 7 8 9 9 11 12
19 19 18 17 17 16 14 13 13 11 9 7 6 6 6 6 8 9 10 11 12 13 13 12 11 10 11 17 23 24 23 24 24 22 19 17 14 11 11 11 9 8 8 7 6 6 5 3 3 3 3 5 6 8 10 12 8 9 17 17 15 15 14 14 10 9 8 5 5 4 6 7 5 6 8 9 10 11 10 9 9 9 8 9 10 11 13 13
18 18 17 16 16 15 14 12 12 10 8 7 6 5 5 6 8 11 12 12 13 12 12 11 10 10 12 17 22 23 23 24 22 19 18 15 11 9 10 10 8 6 5 5 6 6 5 2 4 4 5 8 8 8 9 10 14 14 18 19 17 18 17 15 11 9 8 6 7 7 7 8 7 8 10 11 12 11 10 10 10 11 11 12 13 13 14 14
17 17 16 15 15 14 13 12 11 10 7 6 5 4 5 6 10 13 13 13 13 12 12 10 10 10 13 19 24 26 24 22 20 18 16 13 10 10 12 11 9 6 4 5 5 6 5 1 4 4 5 11 11 10 5 4 14 18 19 20 18 19 18 16 13 10 8 8 9 8 10 11 11 10 11 13 12 11 12 11 11 13 13 13 14 14 14 13
17 17 16 14 14 13 12 11 10 8 7 5 4 3 3 6 11 14 14 13 12 12 12 10 9 11 16 23 27 27 23 20 19 17 15 12 10 11 11 10 9 8 7 8 6 6 6 2 4 6 6 12 14 13 8 6 14 19 19 20 19 18 18 16 15 13 10 10 7 5 11 13 11 12 14 14 12 13 13 12 12 14 15 14 14 14 13 12
16 16 16 14 13 12 11 10 9 7 6 5 4 2 3 7 13 14 14 13 12 11 10 9 10 13 18 25 28 26 23 20 18 15 12 11 11 11 10 7 6 6 7 8 7 7 6 3 5 7 7 11 14 13 13 12 15 17 16 18 18 15 15 15 15 14 11 11 9 6 12 14 11 14 16 14 14 14 14 13 14 15 16 14 13 13 12 12
16 16 15 13 12 12 10 9 7 6 5 4 3 2 3 9 14 15 13 12 11 10 10 11 12 16 22 26 29 26 22 19 15 12 11 10 11 10 8 7 5 5 7 7 7 5 4 4 5 7 7 8 11 13 14 13 12 13 8 10 16 12 12 13 12 12 9 9 11 9 12 14 12 14 15 14 14 15 14 14 14 14 14 13 12 12 11 11
16 16 15 13 12 11 9 7 5 4 4 4 3 3 4 12 16 14 12 11 10 10 11 12 14 19 24 27 29 25 21 16 13 11 10 11 11 9 8 6 5 7 8 6 5 4 2 1 4 8 5 4 5 10 14 12 10 10 7 7 14 12 10 10 9 11 8 5 6 6 9 13 12 13 13 13 13 13 13 13 12 12 11 11 11 11 10 9
15 16 15 12 11 10 7 5 4 3 3 4 4 4 6 14 16 14 12 11 11 12 12 13 15 19 23 27 27 24 20 15 11 10 11 12 9 8 8 6 5 7 7 5 6 3 3 3 3 7 2 0 3 11 15 12 9 8 9 9 9 9 9 9 8 9 8 5 5 5 10 14 12 12 12 12 13 11 10 10 10 9 9 10 10 10 9 8
14 15 15 12 10 9 6 3 2 2 3 4 3 4 9 15 15 13 12 11 11 12 12 12 14 18 22 26 25 23 19 13 10 10 11 11 8 8 8 7 6 6 5 3 5 2 3 3 3 4 2 0 3 11 13 12 9 5 7 7 6 7 9 9 7 7 5 5 5 5 10 13 13 12 11 11 12 10 9 9 8 8 8 8 8 8 7 6
13 14 14 12 10 7 3 1 2 2 2 2 2 4 11 15 14 12 12 11 11 12 11 11 14 18 21 23 23 22 18 12 10 10 10 9 8 9 7 5 5 6 3 2 3 1 3 4 2 3 2 3 5 7 10 12 9 3 3 6 7 8 9 7 6 6 3 2 1 3 8 13 13 12 10 10 10 9 8 8 7 7 7 7 7 6 5 5
11 13 14 12 9 6 1 2 2 1 1 2 1 6 13 15 13 12 11 10 11 10 9 12 15 17 19 21 21 19 16 12 12 11 9 8 7 7 5 3 4 5 3 4 3 2 3 4 2 1 4 7 6 3 6 11 10 7 6 8 10 8 7 8 8 8 6 5 6 8 11 13 13 11 10 9 8 7 7 7 6 6 6 5 5 4 4 5
10 11 13 11 9 4 1 3 3 4 4 4 1 7 14 14 12 11 10 9 9 9 10 15 16 17 20 20 17 16 15 13 12 11 9 7 6 5 4 2 2 3 4 7 5 5 3 4 3 3 8 9 5 3 1 3 8 9 10 11 12 10 9 10 11 10 9 10 12 12 13 14 13 11 10 9 7 5 5 5 4 4 4 4 3 3 3 4
9 10 11 11 8 4 3 4 5 6 7 5 2 7 13 13 13 11 8 8 8 8 11 13 13 15 17 16 16 16 15 13 12 10 8 6 5 4 4 3 1 2 5 5 4 4 3 4 5 4 7 6 4 4 6 4 5 9 10 11 13 13 12 12 13 12 11 12 13 13 15 15 13 11 10 9 7 5 4 4 3 3 3 3 3 3 4 4
8 8 10 10 8 4 5 6 6 8 7 6 2 7 13 13 12 10 8 8 7 7 7 8 11 14 16 17 18 15 14 13 12 10 7 5 4 2 3 4 4 4 5 2 2 2 2 4 4 3 4 3 4 5 4 3 9 10 13 14 14 15 16 14 14 13 10 11 14 13 14 14 13 11 10 8 7 6 5 4 3 3 3 4 4 4 4 5
9 7 9 10 8 4 6 8 8 9 7 5 3 5 11 12 10 8 9 9 7 6 7 10 14 15 16 18 15 13 14 14 12 10 7 6 5 3 3 4 3 4 5 3 2 3 1 3 4 3 4 4 5 5 4 9 11 12 15 17 15 16 16 11 8 8 6 8 13 12 11 13 12 11 9 8 7 6 6 5 4 4 4 5 5 5 5 6
9 7 7 9 8 5 6 8 8 9 6 3 4 4 6 10 9 8 9 9 8 7 10 14 14 13 15 14 12 14 16 13 11 9 6 7 6 3 4 4 3 4 3 1 2 2 3 5 6 6 5 5 5 6 9 11 11 12 14 15 16 15 14 11 8 8 6 6 11 11 9 11 10 9 8 7 6 6 5 5 4 4 4 5 5 5 6 7
10 8 6 8 8 5 5 9 9 9 5 1 3 5 3 6 7 8 9 9 9 9 12 15 13 12 12 11 11 15 13 11 11 7 5 7 6 3 5 4 4 4 2 1 2 2 4 6 5 6 6 7 9 11 11 12 11 10 10 12 14 12 10 12 11 9 7 7 10 9 8 9 8 7 7 6 6 6 5 4 4 4 4 5 6 6 7 7
11 9 7 6 8 6 5 8 10 9 6 2 1 5 3 2 5 8 9 9 10 11 11 13 13 11 10 11 12 13 12 10 10 5 4 7 6 3 3 3 3 2 1 1 2 3 5 6 4 4 6 7 9 12 13 14 13 9 7 7 10 11 9 12 13 11 11 10 9 6 5 6 5 4 4 4 4 4 4 4 5 5 5 6 7 7 6 6
12 10 8 6 7 7 4 8 11 10 8 6 2 2 1 2 4 7 9 9 9 11 11 12 14 10 9 12 12 12 11 9 8 5 3 5 4 3 4 5 4 2 2 2 1 3 5 6 4 4 7 7 6 11 12 12 13 11 7 5 8 12 11 12 13 11 11 9 5 3 2 2 2 2 2 2 2 3 3 4 5 5 6 6 6 6 5 4
13 11 10 7 7 7 5 7 11 12 10 8 5 2 1 1 2 3 5 6 8 12 13 12 13 9 8 12 12 12 11 8 7 6 4 5 5 4 4 6 5 3 4 3 1 3 4 5 5 3 6 8 5 8 10 8 10 12 9 8 9 10 9 10 9 7 5 3 1 2 2 0 1 2 3 3 2 2 2 2 4 6 5 5 5 5 4 3
13 11 10 9 8 7 7 8 10 12 12 9 6 3 1 2 3 2 2 4 6 12 15 13 13 10 8 11 11 10 8 6 7 7 5 6 6 5 4 5 5 5 6 4 3 5 5 6 7 5 6 8 6 7 8 6 6 11 10 9 8 6 7 8 7 5 5 3 2 2 1 2 2 4 4 4 4 3 3 3 4 5 5 4 4 3 3 2
13 11 10 10 9 8 8 9 9 11 12 10 7 3 2 2 3 3 1 2 2 12 15 14 14 12 10 11 11 10 6 5 8 8 8 10 9 7 6 6 4 3 4 4 3 4 7 6 3 5 7 6 5 5 6 6 4 9 11 9 7 4 4 4 4 4 7 6 4 4 3 2 3 4 5 5 5 5 5 4 4 4 4 3 3 2 2 1
13 11 9 9 10 9 9 10 10 10 10 10 10 6 3 1 2 3 1 1 4 12 15 13 14 15 12 11 11 11 8 6 7 7 9 14 14 10 7 7 5 4 5 6 5 5 5 5 2 2 3 3 5 5 6 5 4 8 10 7 6 4 3 1 0 4 8 7 5 3 5 3 3 5 6 7 5 4 6 5 5 5 4 4 3 2 2 0
13 11 9 8 9 10 11 12 11 9 9 9 10 9 5 3 3 2 1 2 4 9 13 12 12 14 14 12 11 11 10 7 6 7 9 14 16 12 9 9 7 6 6 6 6 6 5 5 6 6 4 3 5 7 6 5 4 7 9 7 6 4 2 1 3 6 8 5 4 2 6 3 2 3 3 5 4 4 6 5 4 4 3 3 3 2 2 1
12 10 9 8 8 10 11 13 12 9 8 9 10 10 8 6 5 1 1 4 5 6 10 10 9 13 14 13 11 11 12 9 5 8 11 13 16 15 13 12 11 9 8 7 7 7 6 7 10 10 8 8 8 8 7 5 4 7 9 9 7 4 2 1 4 5 3 2 5 4 5 6 4 2 3 4 5 4 5 5 4 2 1 1 2 2 1 2
12 10 9 8 8 10 12 13 13 10 9 10 11 11 10 7 6 7 5 3 3 4 7 7 8 12 12 11 12 11 12 12 7 8 11 12 14 15 15 14 11 7 5 6 9 9 8 9 11 12 11 12 11 10 12 8 6 8 10 10 7 3 3 2 3 2 2 4 6 6 4 7 8 5 5 5 4 4 5 5 5 4 2 1 1 1 1 2
12 10 9 8 8 10 11 13 13 11 10 11 13 12 11 6 5 11 11 5 1 2 5 6 8 12 11 11 13 12 12 13 10 9 11 12 13 14 15 15 13 11 7 5 8 11 9 10 14 15 15 15 15 13 12 7 7 11 10 8 6 3 3 1 2 2 3 4 6 6 4 6 8 7 5 5 4 5 6 6 5 4 4 3 2 2 2 2
12 11 9 9 10 9 10 12 12 12 11 12 13 13 12 10 7 10 12 9 4 1 2 4 7 11 11 11 13 13 12 13 12 11 12 12 13 13 15 16 15 16 13 7 8 13 10 8 13 18 17 16 18 18 10 5 5 11 9 6 4 2 1 1 2 2 1 1 0 2 3 4 4 3 3 6 6 7 7 6 6 5 6 6 4 3 2 3
12 12 11 10 10 10 10 11 12 12 12 13 14 15 17 16 12 10 9 10 8 5 3 4 6 9 11 12 13 13 13 11 12 13 13 13 13 13 13 14 14 16 16 10 10 14 14 10 8 12 16 15 16 18 15 9 5 11 12 10 6 3 1 1 1 2 2 1 1 3 5 7 7 6 7 7 7 8 8 7 6 5 6 6 5 4 3 3
12 12 12 11 9 9 9 11 11 12 13 14 15 18 21 18 13 9 7 8 10 8 6 5 6 8 10 13 14 13 14 13 11 12 13 13 14 15 14 12 10 12 14 12 11 13 17 13 7 9 16 18 14 14 15 12 6 8 11 10 7 4 4 2 1 1 1 1 2 4 7 11 11 10 10 10 10 11 10 8 6 6 6 7 6 5 4 3
12 11 12 11 9 8 9 10 10 11 13 15 17 19 21 19 15 11 8 7 8 7 4 3 4 7 7 10 13 13 14 15 12 12 12 11 11 11 13 12 10 9 10 11 12 13 14 12 9 10 14 18 15 13 16 17 11 8 6 5 6 6 6 4 1 2 2 1 3 5 8 13 11 8 10 11 12 12 12 10 8 8 8 7 6 5 4 3
12 10 11 11 9 9 10 10 11 12 14 16 18 18 19 20 19 16 12 10 8 6 4 4 3 6 4 5 10 11 12 14 13 12 12 12 9 8 9 10 9 8 8 12 13 12 12 9 7 10 13 15 15 15 20 22 16 12 6 3 6 6 4 4 3 1 1 1 3 5 9 12 11 9 9 9 7 7 9 10 9 9 8 8 7 6 4 3
12 9 10 10 10 9 10 10 11 13 15 17 19 18 18 20 20 18 17 15 12 10 9 7 5 5 4 3 6 9 10 12 13 13 11 10 10 8 7 8 8 7 7 12 14 12 12 9 5 10 13 13 15 18 22 24 21 18 14 8 8 8 4 3 4 2 2 1 2 4 5 7 9 9 6 5 5 3 4 6 8 9 9 8 7 6 4 3
11 8 9 10 10 10 10 10 12 14 16 18 20 18 18 19 19 19 18 17 16 15 14 12 9 8 6 5 6 8 9 10 12 14 14 12 11 9 8 8 9 8 7 11 15 13 12 11 6 8 12 13 16 17 16 17 19 21 20 15 13 13 9 4 5 6 2 1 2 1 4 8 10 10 6 2 5 4 3 5 8 9 9 8 7 5 4 2
12 9 9 10 10 10 10 10 12 14 16 18 20 18 17 17 18 18 17 17 18 17 16 15 14 11 8 5 6 7 9 10 10 12 16 16 15 13 10 9 9 9 7 9 15 13 11 12 10 10 14 14 13 12 10 11 14 17 19 18 15 14 13 6 4 7 6 4 3 2 4 11 11 9 6 3 4 6 6 7 9 9 9 8 6 5 3 1
12 10 10 10 11 11 10 11 13 15 17 18 19 17 16 17 18 18 17 16 17 17 17 17 15 12 8 5 5 6 7 10 12 13 14 15 16 15 11 10 9 9 8 10 14 13 10 11 11 12 13 10 7 10 12 13 16 18 20 21 19 17 16 11 6 6 6 6 6 2 3 9 11 9 7 5 2 6 7 7 8 8 8 7 5 4 2 1
13 10 10 12 12 12 12 13 14 15 16 17 18 16 16 17 18 18 18 17 17 17 17 17 15 12 9 6 6 6 6 8 11 14 15 14 15 15 12 11 11 11 11 12 13 13 11 10 10 9 8 7 7 10 12 12 16 20 20 21 22 22 20 16 13 11 6 6 7 3 2 8 9 9 8 6 4 5 8 9 7 7 6 5 4 2 1 2
13 10 11 13 14 14 14 15 15 16 16 17 17 16 17 18 19 18 18 17 17 16 17 17 16 14 12 9 8 7 7 7 9 12 15 15 14 15 14 13 13 13 13 13 13 13 11 8 10 8 5 4 5 6 9 13 15 16 16 17 20 22 22 20 18 15 10 8 7 5 4 9 11 11 10 8 7 6 6 10 10 8 6 4 4 3 3 3
13 11 13 15 15 15 16 16 16 16 16 17 18 18 18 19 19 19 19 18 17 16 16 16 15 14 13 12 11 10 9 9 10 10 12 14 14 13 14 14 15 15 13 13 13 12 11 9 11 11 7 6 6 6 10 15 15 13 14 15 15 17 20 20 17 14 11 9 8 8 8 13 14 13 10 8 8 9 7 9 10 10 8 6 6 5 4 4
14 12 13 15 17 17 17 17 18 18 18 18 19 19 19 19 19 19 19 19 17 17 18 17 15 14 14 14 13 11 11 11 11 10 10 13 14 13 14 15 16 16 13 13 12 12 12 11 12 14 13 11 10 10 9 11 13 12 11 12 12 12 15 16 14 12 10 9 10 11 12 14 14 11 8 8 10 9 7 8 9 9 8 6 6 4 4 5
16 14 13 14 16 17 18 19 20 21 21 20 19 19 18 18 18 18 18 18 16 17 19 19 17 15 14 14 13 12 13 12 11 11 11 12 14 14 15 15 16 15 13 13 13 12 13 13 12 13 13 12 11 11 10 10 12 12 10 11 11 9 10 11 11 10 10 9 9 11 13 13 12 9 8 10 11 8 6 6 6 7 6 5 5 5 3 4
18 17 16 16 16 16 18 21 22 23 23 22 21 20 18 17 17 16 16 17 16 16 18 20 20 17 14 13 13 12 13 12 11 12 13 13 13 15 16 16 16 14 13 14 14 13 12 12 12 12 12 12 12 12 12 12 13 13 13 12 11 10 9 9 8 9 10 10 11 13 14 14 12 10 10 12 12 8 4 4 5 6 7 7 6 4 3 3
19 19 18 19 19 18 18 20 23 24 24 24 23 21 18 17 16 15 14 16 16 16 18 21 21 19 17 15 15 15 13 13 12 12 12 13 14 15 17 19 17 15 15 15 15 13 12 10 10 11 11 12 12 12 12 13 14 15 15 15 14 14 13 11 10 11 12 13 14 14 15 15 14 12 12 12 11 9 5 6 8 8 8 7 6 5 3 3
20 21 20 20 22 22 21 20 22 24 25 25 24 22 20 18 16 15 16 18 17 15 18 21 20 17 16 15 16 17 15 13 14 12 11 14 15 15 17 19 19 18 17 16 16 14 13 11 9 10 11 11 12 12 12 13 14 16 17 17 17 18 17 16 14 14 14 14 14 14 15 15 13 12 12 12 11 10 5 6 9 9 9 8 7 6 4 3
20 21 21 22 23 24 24 23 23 25 26 26 25 23 22 19 17 18 18 19 20 16 15 20 21 19 18 14 14 17 15 14 16 14 10 13 15 14 17 18 18 19 18 17 17 14 12 11 10 10 11 11 11 11 12 13 14 16 17 18 19 20 20 19 18 16 16 14 14 15 15 13 11 11 12 11 11 10 6 7 10 11 10 9 8 6 5 4
19 20 21 22 23 25 26 26 25 25 25 26 26 25 25 22 19 19 18 17 19 17 14 17 19 20 23 20 14 15 15 14 17 17 13 13 14 12 15 18 18 19 19 18 18 15 13 12 11 10 10 11 10 10 11 11 10 11 13 14 16 19 20 21 20 19 17 16 15 16 14 12 11 12 13 12 12 10 6 6 9 10 10 9 9 7 5 4
Wind_Direction
1 2 4 4 3 2 6 8 8 10 13 20 24 25 27 28 28 22 23 34 53 72 86 98 102 99 94 96 99 101 104 109 112 114 113 113 113 112 111 111 110 110 106 103 106 112 120 124 128 130 133 127 92 63 90 153 237 317 170 143 105 94 84 62 55 48 35 75 112 88 75 57 27 53 61 45 50 68 71 69 72 74 84 87 83 87 98 99
359 360 2 4 2 1 4 7 8 12 15 20 25 24 26 32 30 24 26 41 61 76 94 104 105 103 99 100 102 107 113 117 118 115 114 113 112 109 105 104 105 107 108 112 119 125 130 134 142 148 148 140 132 114 108 116 89 23 205 137 101 93 88 69 58 61 51 57 79 64 60 55 28 43 55 43 44 67 75 79 82 86 91 93 94 98 103 100
356 358 1 4 2 360 3 7 8 11 14 18 23 26 30 35 34 28 31 51 75 92 103 105 106 106 104 104 109 116 121 122 121 117 116 113 108 102 96 95 98 104 119 130 136 144 142 139 149 161 162 150 131 117 83 68 80 79 94 103 97 93 89 77 64 68 72 64 53 59 57 47 42 48 55 48 49 72 89 87 85 91 100 106 110 110 104 102
354 356 359 2 2 359 2 5 7 9 12 17 21 29 37 40 41 38 45 71 94 104 103 103 107 108 109 111 118 124 127 126 122 119 116 110 103 95 90 90 91 94 107 114 124 143 146 146 150 158 166 141 113 101 49 50 96 87 77 79 86 86 80 73 64 63 69 64 47 60 62 48 50 52 62 63 57 85 98 92 93 101 113 121 120 118 111 108
353 354 357 1 1 359 1 4 6 8 12 16 19 32 43 48 53 56 71 91 103 105 102 104 106 110 114 117 126 131 130 128 124 122 117 111 105 95 88 91 97 96 100 106 109 119 118 124 143 145 159 136 107 82 58 66 92 85 78 73 71 66 66 65 59 61 62 62 56 63 70 50 43 45 56 76 87 101 101 100 105 110 119 126 126 124 115 109
352 354 357 0 360 358 0 3 5 7 12 14 18 33 46 58 70 82 96 104 107 105 102 103 106 112 116 121 133 136 133 131 129 125 119 115 110 97 87 89 101 102 105 107 103 102 80 70 126 124 144 135 98 56 53 57 49 91 87 78 70 61 62 65 59 65 69 67 64 68 77 55 42 56 66 82 103 104 103 106 109 112 117 120 120 116 106 98
351 354 358 0 359 357 359 3 4 5 9 12 17 32 51 70 89 104 111 110 109 105 99 101 107 115 119 127 138 139 135 134 132 127 120 116 108 95 84 86 96 101 107 95 76 74 56 57 120 96 94 101 66 54 65 70 77 102 94 83 75 69 65 66 59 65 74 81 88 88 81 68 57 81 89 90 96 100 104 105 103 105 105 103 101 97 94 90
350 353 359 1 359 357 359 2 3 2 5 9 16 32 59 81 106 119 117 112 110 103 97 98 106 117 124 133 142 141 136 135 134 130 122 113 104 92 82 82 87 96 107 75 43 44 50 79 90 65 79 72 46 59 77 82 88 92 90 86 81 75 68 64 59 65 80 89 93 93 91 91 90 95 99 92 91 97 100 99 98 99 96 94 93 93 92 92
349 352 358 1 360 357 358 1 2 359 358 4 13 30 63 92 120 126 119 114 110 102 98 97 106 118 125 135 142 140 136 138 137 133 125 114 103 90 81 80 79 84 87 54 32 32 37 56 66 39 72 75 64 73 78 95 96 91 87 87 83 77 70 61 60 67 82 89 87 93 97 93 91 96 97 91 92 96 95 94 97 98 96 92 93 94 94 95
349 352 357 1 360 358 359 1 1 356 354 1 9 22 68 107 129 129 121 116 111 104 98 96 110 121 126 136 142 140 138 141 139 134 130 118 96 84 85 87 78 69 61 58 54 41 30 19 68 53 70 83 82 86 95 111 106 103 95 89 83 77 74 63 59 66 73 85 93 104 100 93 90 96 93 89 91 92 91 90 93 97 96 95 94 95 94 93
349 351 356 359 359 360 360 1 1 355 352 1 6 14 75 120 135 130 121 115 110 104 96 97 113 124 131 140 145 143 141 142 138 134 133 116 91 86 85 73 50 43 50 58 60 60 56 49 50 45 59 88 96 98 100 101 106 110 102 94 90 80 78 69 56 59 62 76 93 107 102 98 96 94 90 90 92 90 88 87 90 94 93 93 94 93 91 90
348 350 355 358 358 360 1 3 1 353 353 3 10 25 90 130 137 128 119 113 106 102 98 102 116 128 137 144 147 147 145 143 138 133 131 113 90 81 67 47 34 48 62 53 51 73 77 55 20 13 37 85 102 106 106 106 109 109 101 94 99 92 79 72 53 53 55 73 92 98 100 101 98 93 90 92 92 90 90 90 91 91 90 92 92 91 90 91
348 348 354 357 357 359 2 5 3 356 358 9 31 57 110 136 137 127 121 114 107 108 106 106 117 131 140 146 149 150 147 141 133 131 125 105 85 70 64 64 60 62 67 44 42 97 136 100 340 350 30 80 87 110 117 117 115 102 91 90 101 100 82 72 53 50 46 69 106 115 110 105 100 96 94 93 91 92 93 95 97 94 93 94 93 92 91 91
348 347 352 355 356 1 4 7 12 15 18 27 49 80 128 140 138 133 131 122 115 117 113 112 121 132 142 146 150 152 148 137 128 131 119 101 87 74 70 74 63 46 55 31 27 88 173 180 300 335 51 103 47 114 124 120 120 102 91 87 90 97 87 71 55 52 49 74 110 132 124 113 105 101 98 97 96 97 98 100 103 100 96 94 93 94 92 86
350 347 351 353 353 359 4 17 47 62 54 40 47 103 136 142 144 144 141 132 126 125 119 119 128 136 143 147 149 151 147 137 130 131 119 108 93 79 69 65 62 39 38 22 18 50 190 195 283 332 86 184 69 115 125 125 125 105 89 93 92 92 87 69 50 50 60 88 94 112 127 119 112 110 106 102 100 101 101 102 106 104 96 93 94 93 89 76
351 346 349 350 350 355 360 72 112 116 74 23 19 120 141 148 154 154 146 137 131 128 120 120 133 138 142 146 147 149 148 140 133 128 124 122 99 80 73 65 56 39 48 64 23 45 193 201 262 348 89 131 116 109 117 130 135 120 99 117 115 96 86 77 58 56 81 176 155 134 135 122 118 120 115 107 103 105 107 107 109 108 104 98 94 87 75 60
351 347 348 349 347 349 334 160 164 214 256 288 355 129 149 157 159 157 148 141 132 124 117 123 134 137 139 144 148 153 153 143 137 132 132 133 106 83 82 80 37 27 68 90 90 160 188 211 240 22 138 134 137 129 113 140 163 173 155 135 123 107 98 98 84 82 99 125 123 126 126 118 119 124 120 114 109 115 118 116 114 112 111 103 93 78 59 49
351 347 347 348 346 341 240 203 221 264 274 286 343 143 160 164 162 161 155 145 130 117 119 125 130 133 137 143 150 156 154 148 147 142 139 136 117 97 88 88 13 28 90 94 120 183 200 212 226 147 150 154 176 224 359 179 184 166 151 139 131 121 113 105 96 97 110 117 116 119 118 113 117 120 119 119 119 120 119 122 127 121 118 111 98 78 55 44
349 346 346 348 345 324 242 234 250 277 292 315 9 157 168 165 162 166 164 154 138 125 124 125 130 138 141 146 152 155 155 155 155 150 150 148 135 112 83 103 163 119 120 107 134 204 231 207 203 177 168 179 208 264 318 308 164 145 141 139 133 123 113 105 101 106 115 117 111 110 111 109 111 115 115 117 119 119 118 128 135 127 120 111 98 79 64 53
342 343 342 345 344 314 251 251 263 282 302 337 30 162 172 169 169 175 177 172 160 146 137 133 137 141 144 148 150 154 160 161 157 156 165 173 167 139 92 126 158 154 162 183 153 163 252 231 213 214 204 209 232 263 286 150 140 138 137 136 129 117 110 107 108 109 110 111 106 103 105 106 107 111 110 111 116 123 128 132 127 114 104 98 97 92 84 71
331 335 336 339 341 316 259 256 266 284 309 354 40 152 174 181 182 184 187 186 174 157 150 143 140 142 147 151 156 163 166 164 163 169 184 195 193 175 142 143 154 163 175 196 142 118 170 205 185 188 201 213 224 228 175 142 139 137 136 132 124 114 109 107 110 111 111 112 108 105 104 104 105 104 104 106 111 117 118 118 118 108 101 105 111 111 100 83
321 322 326 330 335 321 264 255 261 280 310 11 53 98 167 190 194 195 197 197 185 165 155 150 146 148 152 159 169 169 165 165 170 178 194 195 187 165 152 153 161 164 164 156 118 115 114 137 166 175 171 173 163 153 144 138 138 138 138 134 124 119 113 109 111 109 114 116 109 112 111 105 103 102 104 105 106 104 99 100 102 100 104 110 113 108 98 88
312 311 312 316 324 324 269 254 254 269 297 2 69 60 109 196 214 218 218 212 194 172 162 160 156 155 158 169 179 175 170 173 176 174 183 183 171 155 152 141 145 149 137 61 46 80 118 126 158 169 155 148 136 136 140 136 139 141 138 135 125 123 119 116 118 115 115 110 103 109 109 101 103 103 104 106 104 101 98 97 89 90 103 107 106 101 92 90
305 303 298 300 309 315 280 254 247 254 273 245 104 44 47 234 245 242 241 230 203 180 174 173 166 160 167 180 187 188 183 179 179 163 152 174 169 171 184 165 160 150 118 97 50 73 117 120 133 149 153 151 130 136 144 134 135 141 132 124 116 118 124 119 120 120 116 110 100 97 91 88 98 103 102 101 96 93 94 97 91 90 101 104 104 102 95 88
301 299 291 285 291 301 288 252 241 242 254 246 239 20 23 258 265 257 249 239 216 194 187 182 173 169 182 188 189 190 185 180 182 165 142 175 184 217 242 230 231 251 201 169 96 112 121 122 129 132 154 169 135 133 144 130 126 138 133 108 104 111 116 116 120 121 117 119 107 62 53 83 114 126 133 120 96 92 88 92 100 102 109 111 110 108 102 88
300 299 289 276 273 284 281 253 240 237 244 248 255 298 8 298 289 267 252 258 243 209 194 190 186 187 189 190 192 191 190 192 185 177 183 207 213 225 240 232 232 218 193 188 163 163 145 141 150 139 153 173 164 138 148 138 117 128 127 108 113 117 106 101 108 103 94 129 148 34 42 9 206 188 182 171 159 144 127 121 119 117 121 123 121 116 105 87
299 301 293 277 262 264 267 258 246 238 237 242 251 271 328 350 340 306 285 305 261 208 200 201 196 194 183 183 193 192 191 200 194 188 186 193 202 194 184 199 193 175 187 195 188 193 184 164 160 176 181 175 171 145 148 159 122 118 112 96 107 123 105 88 86 64 28 358 270 285 331 320 250 225 222 207 194 191 175 161 149 135 137 140 134 135 117 88
299 302 298 282 263 254 254 254 250 239 235 236 236 243 290 341 341 311 312 23 203 197 204 209 200 193 183 184 195 193 188 200 206 210 206 204 215 215 196 193 196 196 215 230 241 224 205 195 163 174 194 183 161 136 139 166 153 120 110 93 92 114 124 91 70 41 11 345 297 265 243 263 265 237 235 233 218 206 191 175 172 159 155 166 157 157 150 98
299 303 302 287 266 255 249 248 249 242 235 231 227 232 261 310 308 298 321 79 186 192 201 207 201 198 194 192 198 198 204 209 203 206 211 212 219 231 223 216 235 258 255 257 270 271 228 226 278 210 205 184 154 151 151 169 172 135 128 122 111 116 147 153 330 346 342 325 311 275 221 233 287 253 236 240 240 214 196 190 191 190 185 189 187 186 197 224
298 303 304 291 267 254 247 245 246 241 234 224 221 228 238 267 281 300 40 247 210 190 202 212 207 204 202 201 202 207 212 210 199 195 204 215 219 229 238 237 249 267 273 263 253 267 249 215 224 223 227 219 172 162 166 184 187 154 144 142 133 125 134 235 288 315 324 319 341 300 225 236 313 282 253 245 251 235 210 202 195 200 202 201 211 216 232 284
297 303 306 296 267 251 242 241 242 237 229 218 215 219 224 249 270 244 129 244 231 192 201 212 205 202 206 208 212 219 212 201 203 202 199 210 217 224 237 246 254 262 265 256 241 243 229 205 209 213 220 219 193 165 161 175 173 162 157 148 139 125 113 296 307 322 319 317 359 342 232 238 256 286 331 280 256 250 227 207 180 177 196 223 260 266 274 294
296 298 305 298 269 252 239 237 239 235 227 215 208 211 218 237 249 226 219 252 248 200 193 197 195 198 205 211 214 219 211 202 207 210 203 209 218 226 238 247 250 251 256 252 237 222 211 214 212 210 218 220 208 176 160 161 164 173 175 161 141 86 45 336 314 318 253 256 311 317 245 238 259 279 304 290 266 247 239 226 199 178 166 219 292 285 280 287
293 292 297 293 272 258 244 237 236 233 229 216 205 207 212 219 233 229 230 235 234 177 188 194 195 200 206 207 208 212 210 210 211 211 216 230 242 248 251 252 249 247 259 266 225 200 191 214 218 216 217 219 220 202 175 170 187 188 184 168 153 100 65 327 283 282 279 280 294 291 249 251 278 289 270 257 245 228 235 241 226 197 174 180 199 203 239 280
290 285 284 285 277 267 251 241 238 232 228 218 206 202 206 208 217 227 230 230 232 221 199 205 203 210 212 200 201 208 210 217 221 219 224 238 255 262 257 253 249 248 254 254 216 198 188 208 220 219 218 218 222 224 231 275 215 192 196 196 196 180 113 259 247 228 254 4 8 213 212 253 282 299 258 244 236 226 227 237 238 219 192 186 192 199 230 275
286 281 275 276 276 272 258 244 239 233 228 218 208 205 209 215 221 226 232 232 237 259 275 248 226 221 212 198 200 210 214 220 223 227 235 245 255 263 260 255 252 248 244 230 209 207 210 224 232 224 224 226 227 226 239 264 216 190 206 216 220 242 282 281 169 199 198 112 132 202 225 257 267 274 272 261 253 242 233 235 237 222 199 192 198 206 224 255
282 278 272 270 270 269 258 245 239 234 229 219 213 214 216 218 220 222 228 230 238 258 277 265 240 226 213 206 208 213 216 220 225 232 241 249 256 261 264 264 255 246 240 225 208 207 213 225 242 230 222 228 239 238 233 238 222 199 214 224 225 244 276 273 105 115 138 99 269 238 253 271 275 278 270 255 253 251 242 235 225 207 197 195 199 204 212 231
280 274 269 267 268 264 251 241 237 233 227 221 221 221 219 220 221 219 220 226 236 251 276 290 232 215 213 215 217 216 218 223 230 239 244 250 260 261 258 260 253 247 241 225 218 214 212 221 234 231 221 222 234 239 230 234 243 233 229 241 240 251 266 242 160 64 67 21 270 251 269 279 276 273 265 254 252 254 248 237 219 205 197 192 196 198 199 216
278 271 267 264 262 258 247 238 234 230 224 222 226 227 222 222 224 224 226 231 232 232 259 314 265 214 217 225 218 217 223 228 232 241 249 251 256 257 250 246 240 240 229 215 219 221 218 225 228 223 223 222 224 223 221 228 242 245 250 264 235 241 251 219 206 36 67 287 292 269 277 287 288 286 276 262 258 263 251 233 216 207 198 190 193 195 196 208
276 267 264 262 256 252 248 240 232 225 221 222 228 229 225 224 225 227 230 234 237 240 255 284 280 238 249 263 231 219 224 234 237 240 247 247 245 243 236 230 224 231 228 214 215 220 219 221 210 210 219 219 216 218 220 225 231 235 242 252 238 235 248 238 234 224 159 188 297 292 288 307 329 334 316 259 241 263 254 223 203 194 187 183 186 188 194 212
276 262 254 256 251 244 245 243 232 222 219 222 228 230 228 227 227 229 233 236 239 246 255 264 266 265 275 274 252 237 231 239 245 244 245 246 250 246 232 226 222 230 245 223 214 218 217 212 201 204 212 211 213 222 229 230 229 229 234 240 235 231 239 258 255 242 218 176 164 169 294 309 333 348 351 269 212 203 183 174 173 176 177 179 181 182 194 217
273 258 245 247 244 237 237 237 229 221 218 222 229 232 232 231 229 230 235 239 241 244 250 256 260 268 279 266 245 244 241 245 251 253 252 251 257 258 240 228 228 233 244 220 207 208 207 204 201 200 208 214 219 229 243 246 244 242 244 248 248 243 241 243 255 244 231 226 200 162 282 303 328 348 347 318 210 184 161 151 158 165 168 168 168 172 188 240
268 256 245 242 239 235 231 230 228 224 222 225 228 231 234 234 233 233 234 238 242 244 247 251 255 261 268 260 245 245 249 252 249 250 254 252 253 256 242 223 225 231 229 209 201 206 207 205 207 208 215 223 228 234 241 247 250 249 251 255 257 254 247 238 245 250 227 228 237 211 270 301 329 346 334 318 233 187 177 164 156 155 156 156 162 172 194 292
261 250 242 239 234 231 228 228 229 227 225 228 229 229 232 235 236 235 234 234 238 243 246 247 249 252 254 254 253 254 259 260 249 244 250 254 251 250 240 222 218 219 218 211 205 208 209 202 199 198 201 209 218 235 240 236 239 242 246 252 253 252 252 250 257 264 250 238 240 209 253 293 318 339 332 316 288 225 199 192 183 174 169 164 169 190 241 300
255 239 233 235 233 230 229 230 234 232 229 231 232 230 231 235 238 238 236 234 233 238 244 246 245 246 246 245 248 255 259 260 256 248 246 250 252 246 236 224 215 212 216 219 214 208 204 195 188 171 134 160 212 237 231 221 227 239 249 256 256 252 252 255 260 259 254 257 247 209 249 292 312 328 330 328 314 288 232 207 202 201 199 201 220 252 279 300
253 236 228 231 231 230 228 231 236 236 234 234 234 232 230 234 240 242 240 237 233 233 237 239 239 238 240 241 239 243 249 252 257 259 247 244 249 244 231 222 215 211 214 221 223 222 217 209 202 190 163 164 199 218 224 221 223 235 248 256 256 251 248 249 252 248 245 246 234 229 270 301 314 319 326 342 331 307 269 227 213 206 208 222 239 257 276 295
249 236 225 227 230 230 227 228 232 235 235 235 237 237 235 235 239 244 244 241 237 234 232 229 228 230 234 237 236 237 241 242 247 254 251 246 244 236 228 223 215 209 213 219 222 227 226 219 218 216 210 208 217 226 231 226 222 227 238 242 243 244 243 240 237 240 248 243 239 260 288 308 320 322 325 338 333 316 287 257 233 211 205 218 232 243 265 285
245 236 221 219 226 229 227 227 230 235 237 238 239 241 240 238 239 243 244 243 240 234 230 224 217 220 228 232 236 240 239 239 241 246 250 251 243 229 222 218 208 203 210 215 215 220 224 222 222 226 231 238 243 244 245 239 231 230 230 229 233 239 241 239 236 246 261 255 258 286 302 309 323 329 324 329 332 319 286 260 236 212 201 209 228 239 258 279
243 239 226 216 219 225 227 227 230 235 239 239 239 240 240 240 241 242 241 240 237 231 227 220 215 219 226 229 235 240 236 235 238 241 247 247 234 220 210 204 202 203 207 211 212 217 221 221 223 230 239 248 251 250 250 246 241 241 238 233 234 235 236 243 248 257 268 267 273 291 297 300 312 319 315 322 332 320 272 202 188 204 206 207 218 225 235 262
241 241 233 222 219 221 225 228 230 234 238 241 241 242 242 242 242 241 237 233 228 222 221 219 214 219 227 230 236 238 235 235 233 232 238 233 219 211 204 199 201 204 207 213 215 218 224 226 227 233 241 246 248 250 251 249 249 251 249 246 241 237 237 244 254 261 267 270 277 286 288 291 302 309 308 315 328 325 274 197 180 187 193 198 210 218 229 258
240 239 236 228 221 220 223 227 231 233 236 240 242 243 244 245 245 243 235 228 221 213 216 218 215 220 228 230 237 237 235 236 231 225 233 229 216 208 204 202 203 202 205 216 219 221 228 230 225 229 236 240 242 248 256 259 261 260 257 255 252 247 246 248 254 260 265 273 283 283 283 291 299 302 301 305 320 329 296 217 192 185 189 197 207 213 218 241
240 238 236 232 225 222 222 225 229 233 235 238 241 242 242 245 249 248 240 231 224 214 210 217 221 227 227 225 234 236 234 237 229 220 228 233 226 219 212 212 214 208 205 211 217 222 229 229 227 231 235 239 242 249 257 262 267 267 262 258 255 252 251 250 253 259 264 275 284 278 278 292 299 294 293 300 316 324 295 222 194 188 191 196 200 208 221 245
239 236 235 234 230 225 223 224 227 231 233 236 238 240 240 241 247 250 245 234 227 221 216 220 227 233 227 221 226 232 233 240 231 218 216 224 228 230 224 223 225 222 216 213 212 219 228 229 232 235 236 243 245 244 250 259 271 275 268 261 256 253 252 251 252 257 263 272 278 276 278 286 290 289 290 299 314 316 286 223 193 184 182 184 192 204 221 249
Height
3151 3149 3148 3146 3144 3142 3141 3140 3139 3138 3137 3136 3135 3135 3135 3134 3134 3134 3134 3134 3133 3133 3134 3134 3134 3135 3135 3135 3135 3135 3136 3136 3136 3136 3137 3137 3138 3140 3141 3142 3143 3144 3144 3145 3145 3146 3146 3146 3147 3147 3147 3146 3146 3146 3146 3146 3146 3146 3145 3146 3146 3146 3147 3147 3147 3148 3148 3148 3148 3148 3148 3148 3148 3148 3148 3149 3149 3149 3149 3149 3148 3149 3149 3149 3148 3148 3149 3149
3151 3150 3148 3146 3145 3143 3141 3140 3139 3138 3137 3137 3136 3136 3135 3135 3135 3135 3135 3135 3134 3134 3134 3135 3135 3136 3136 3136 3136 3137 3137 3137 3138 3138 3139 3140 3141 3143 3144 3144 3145 3145 3145 3146 3146 3146 3146 3147 3147 3147 3146 3146 3146 3146 3146 3146 3146 3146 3146 3146 3147 3147 3148 3148 3148 3148 3148 3149 3148 3148 3148 3148 3148 3149 3149 3149 3149 3149 3149 3149 3149 3149 3149 3149 3149 3148 3148 3149
3152 3150 3148 3147 3145 3144 3142 3141 3140 3139 3138 3137 3137 3136 3136 3135 3135 3135 3135 3135 3135 3135 3135 3135 3136 3136 3136 3137 3137 3138 3138 3139 3139 3140 3141 3142 3144 3145 3145 3146 3146 3146 3146 3146 3146 3147 3147 3147 3147 3147 3147 3147 3146 3146 3147 3147 3147 3147 3147 3147 3147 3148 3148 3148 3149 3149 3149 3149 3149 3149 3149 3149 3149 3149 3149 3150 3150 3150 3150 3149 3149 3149 3149 3149 3149 3149 3149 3150
3152 3150 3149 3147 3145 3144 3142 3141 3140 3139 3138 3137 3137 3136 3136 3136 3136 3136 3136 3136 3136 3136 3136 3136 3137 3137 3137 3138 3138 3139 3140 3140 3141 3142 3143 3145 3146 3146 3147 3147 3147 3146 3146 3146 3147 3147 3147 3147 3148 3147 3147 3147 3147 3147 3148 3147 3147 3148 3148 3148 3148 3149 3149 3149 3149 3150 3149 3149 3149 3149 3149 3149 3149 3150 3150 3150 3151 3151 3150 3150 3150 3149 3149 3149 3149 3150 3150 3150
3152 3150 3149 3148 3146 3144 3143 3142 3140 3140 3139 3138 3137 3137 3136 3136 3136 3137 3137 3137 3137 3137 3137 3138 3138 3138 3138 3139 3139 3140 3141 3142 3143 3144 3145 3146 3147 3148 3148 3148 3148 3147 3147 3147 3147 3148 3148 3148 3148 3148 3148 3148 3148 3148 3148 3148 3148 3148 3148 3149 3149 3150 3149 3149 3150 3150 3150 3150 3150 3150 3150 3150 3150 3150 3150 3151 3151 3151 3151 3150 3150 3150 3150 3150 3150 3150 3150 3151
3151 3150 3149 3148 3146 3145 3143 3142 3141 3140 3139 3138 3138 3137 3137 3137 3137 3137 3138 3138 3138 3138 3138 3139 3139 3139 3139 3139 3140 3141 3142 3143 3144 3146 3147 3148 3149 3149 3149 3149 3149 3148 3148 3148 3148 3148 3148 3148 3149 3149 3149 3149 3149 3148 3148 3148 3148 3148 3149 3150 3150 3151 3150 3150 3150 3150 3150 3150 3150 3150 3150 3150 3151 3151 3151 3151 3151 3151 3151 3151 3151 3151 3151 3151 3151 3152 3152 3153
3151 3150 3149 3148 3147 3145 3144 3143 3141 3141 3140 3139 3138 3138 3137 3137 3137 3138 3138 3139 3139 3140 3140 3140 3140 3140 3140 3140 3142 3143 3143 3144 3146 3147 3148 3149 3150 3150 3150 3150 3150 3149 3149 3149 3149 3149 3149 3149 3150 3150 3150 3150 3149 3148 3148 3148 3149 3148 3149 3151 3151 3151 3151 3150 3151 3151 3151 3151 3151 3151 3151 3151 3151 3151 3152 3152 3152 3152 3152 3152 3152 3153 3153 3153 3153 3154 3154 3154
3151 3150 3149 3148 3147 3146 3144 3143 3142 3141 3140 3139 3139 3138 3138 3138 3138 3138 3139 3140 3140 3141 3140 3140 3140 3140 3140 3141 3142 3144 3145 3146 3147 3149 3150 3151 3151 3151 3151 3151 3151 3150 3150 3150 3150 3150 3150 3150 3150 3151 3150 3150 3149 3149 3149 3149 3150 3150 3150 3151 3152 3152 3152 3152 3152 3152 3152 3152 3152 3152 3152 3152 3152 3152 3153 3153 3153 3153 3154 3154 3154 3154 3155 3155 3155 3155 3155 3155
3152 3150 3149 3147 3147 3146 3145 3143 3142 3141 3140 3140 3139 3139 3139 3138 3139 3139 3140 3141 3141 3141 3141 3141 3141 3141 3141 3142 3143 3144 3146 3147 3149 3150 3151 3152 3152 3152 3152 3152 3152 3151 3151 3151 3151 3151 3150 3151 3151 3151 3150 3150 3150 3150 3150 3150 3151 3152 3151 3152 3153 3153 3153 3153 3154 3153 3153 3154 3153 3154 3153 3153 3153 3154 3154 3154 3154 3155 3155 3156 3156 3156 3156 3157 3156 3156 3156 3156
3152 3150 3149 3148 3146 3146 3145 3144 3143 3142 3141 3140 3140 3140 3139 3139 3139 3140 3141 3141 3142 3142 3142 3142 3142 3142 3142 3143 3144 3145 3147 3149 3150 3151 3152 3153 3153 3153 3153 3153 3153 3152 3152 3152 3152 3152 3151 3151 3151 3151 3150 3150 3151 3151 3151 3151 3151 3153 3153 3153 3153 3153 3154 3155 3155 3155 3155 3154 3155 3155 3155 3154 3155 3155 3155 3155 3156 3156 3157 3157 3157 3157 3157 3157 3158 3158 3158 3158
3152 3151 3149 3148 3147 3146 3145 3144 3143 3142 3141 3141 3140 3140 3140 3140 3140 3141 3141 3142 3142 3143 3143 3143 3142 3143 3143 3144 3145 3146 3148 3150 3151 3151 3153 3153 3154 3154 3154 3154 3153 3153 3152 3153 3153 3153 3152 3152 3152 3152 3151 3151 3152 3152 3153 3153 3153 3154 3154 3153 3154 3155 3155 3156 3156 3156 3156 3155 3156 3157 3156 3156 3157 3157 3156 3157 3157 3158 3158 3159 3159 3159 3158 3159 3159 3159 3159 3159
3152 3151 3150 3148 3147 3146 3145 3144 3143 3142 3142 3141 3141 3141 3141 3141 3141 3142 3142 3143 3143 3143 3144 3143 3143 3143 3144 3145 3146 3147 3149 3151 3152 3152 3153 3154 3154 3155 3155 3154 3154 3153 3153 3153 3153 3153 3153 3153 3153 3152 3151 3152 3152 3153 3154 3154 3154 3155 3155 3154 3155 3156 3156 3156 3157 3157 3157 3157 3157 3158 3157 3158 3158 3158 3158 3158 3159 3159 3159 3160 3161 3160 3160 3160 3160 3160 3160 3160
3153 3151 3150 3149 3147 3146 3145 3144 3143 3143 3142 3142 3142 3142 3142 3142 3142 3143 3143 3143 3144 3144 3144 3144 3144 3145 3145 3146 3147 3149 3150 3152 3152 3153 3154 3154 3155 3155 3155 3154 3154 3153 3154 3154 3154 3153 3154 3154 3153 3152 3152 3152 3153 3153 3154 3156 3156 3156 3157 3156 3156 3157 3157 3157 3158 3158 3158 3158 3158 3158 3159 3159 3159 3159 3159 3160 3160 3160 3161 3162 3162 3161 3162 3162 3162 3161 3162 3162
3153 3152 3151 3149 3148 3147 3146 3145 3144 3143 3142 3143 3143 3142 3142 3143 3143 3144 3144 3144 3145 3145 3145 3145 3146 3146 3146 3147 3149 3150 3151 3153 3153 3154 3155 3155 3156 3156 3155 3155 3155 3154 3154 3154 3154 3154 3154 3154 3153 3153 3153 3153 3153 3154 3154 3156 3157 3157 3157 3158 3158 3158 3158 3158 3158 3158 3158 3158 3158 3159 3159 3159 3159 3160 3161 3161 3161 3162 3162 3162 3162 3162 3163 3163 3162 3162 3162 3163
3153 3152 3151 3149 3148 3147 3146 3145 3144 3143 3143 3143 3143 3143 3143 3144 3144 3144 3144 3145 3145 3146 3146 3146 3147 3147 3148 3149 3150 3151 3153 3154 3154 3155 3156 3156 3156 3156 3156 3156 3155 3155 3154 3154 3154 3154 3154 3154 3154 3154 3154 3154 3154 3154 3155 3156 3157 3158 3158 3158 3159 3159 3158 3158 3158 3158 3159 3159 3159 3159 3159 3159 3160 3161 3161 3161 3161 3162 3163 3163 3163 3163 3163 3163 3163 3163 3163 3163
3153 3152 3151 3150 3148 3147 3146 3145 3145 3144 3144 3144 3143 3144 3144 3145 3145 3145 3145 3145 3146 3146 3147 3147 3147 3148 3149 3150 3152 3153 3154 3154 3155 3156 3157 3157 3157 3157 3156 3156 3156 3156 3155 3155 3155 3155 3155 3155 3155 3155 3154 3154 3154 3154 3155 3157 3158 3158 3159 3159 3160 3160 3159 3159 3159 3159 3159 3159 3159 3160 3160 3160 3160 3161 3162 3162 3162 3163 3163 3164 3164 3164 3164 3164 3164 3164 3164 3164
3152 3152 3151 3150 3149 3147 3147 3146 3145 3144 3144 3144 3144 3145 3145 3145 3145 3146 3146 3147 3147 3147 3147 3148 3148 3149 3150 3151 3153 3153 3154 3154 3155 3156 3157 3157 3157 3157 3157 3157 3156 3156 3156 3156 3156 3156 3157 3157 3156 3155 3155 3155 3155 3155 3156 3157 3158 3158 3159 3160 3160 3161 3160 3160 3160 3160 3160 3160 3160 3160 3161 3161 3161 3162 3162 3163 3163 3164 3164 3164 3165 3165 3165 3165 3164 3164 3164 3164
3152 3151 3151 3150 3149 3148 3147 3146 3146 3145 3144 3144 3145 3145 3146 3146 3146 3147 3147 3148 3148 3148 3148 3148 3149 3150 3151 3152 3153 3154 3154 3155 3155 3156 3157 3157 3158 3158 3157 3157 3157 3157 3157 3157 3158 3158 3158 3158 3157 3156 3156 3156 3156 3156 3156 3157 3157 3158 3159 3160 3161 3161 3162 3161 3161 3161 3161 3161 3161 3161 3161 3161 3162 3162 3163 3163 3164 3164 3164 3165 3165 3165 3165 3165 3165 3165 3165 3165
3152 3151 3150 3150 3149 3148 3148 3147 3146 3146 3145 3145 3146 3146 3146 3146 3147 3147 3148 3149 3149 3149 3149 3149 3149 3150 3151 3152 3153 3154 3155 3155 3156 3157 3157 3158 3158 3159 3158 3158 3158 3158 3158 3158 3158 3158 3158 3158 3157 3157 3156 3157 3156 3156 3157 3157 3158 3158 3159 3160 3161 3161 3162 3162 3162 3162 3163 3163 3162 3162 3162 3162 3162 3163 3163 3164 3164 3164 3165 3165 3165 3165 3166 3166 3165 3165 3165 3165
3151 3151 3150 3149 3149 3149 3148 3147 3147 3146 3146 3146 3146 3146 3147 3147 3148 3148 3149 3149 3150 3150 3150 3150 3150 3151 3152 3153 3154 3154 3155 3156 3156 3157 3158 3158 3159 3159 3159 3159 3159 3159 3159 3159 3159 3159 3158 3158 3157 3157 3157 3157 3157 3158 3158 3158 3159 3159 3160 3161 3162 3162 3162 3163 3163 3164 3165 3164 3163 3164 3163 3163 3163 3164 3164 3164 3164 3165 3165 3165 3165 3165 3166 3166 3166 3166 3166 3166
3151 3150 3150 3149 3149 3149 3148 3148 3147 3147 3147 3147 3147 3147 3147 3148 3148 3149 3149 3149 3150 3150 3151 3151 3151 3152 3153 3153 3154 3155 3155 3156 3157 3157 3158 3158 3159 3159 3159 3159 3159 3160 3160 3160 3160 3160 3159 3158 3158 3158 3158 3158 3159 3159 3159 3159 3160 3161 3161 3162 3162 3163 3163 3164 3165 3165 3165 3165 3164 3165 3165 3164 3164 3164 3164 3165 3165 3165 3165 3165 3165 3165 3166 3166 3166 3166 3166 3166
3151 3150 3149 3149 3148 3148 3148 3148 3148 3147 3148 3148 3148 3147 3148 3148 3149 3149 3149 3149 3150 3151 3151 3151 3152 3152 3153 3154 3155 3155 3155 3156 3157 3157 3157 3158 3159 3159 3160 3159 3160 3160 3161 3161 3160 3160 3160 3159 3159 3159 3159 3160 3160 3160 3160 3160 3161 3162 3162 3162 3163 3163 3163 3164 3165 3165 3166 3166 3165 3165 3165 3165 3165 3165 3165 3165 3165 3165 3165 3165 3165 3165 3166 3166 3166 3166 3166 3166
3150 3149 3149 3148 3148 3148 3148 3148 3148 3148 3148 3149 3149 3148 3148 3149 3149 3150 3149 3150 3150 3151 3151 3152 3152 3153 3154 3154 3155 3155 3156 3157 3157 3157 3157 3158 3159 3159 3160 3160 3160 3161 3161 3161 3161 3161 3160 3160 3160 3160 3161 3161 3161 3161 3161 3161 3162 3163 3163 3163 3163 3163 3164 3164 3165 3166 3166 3167 3166 3166 3166 3166 3166 3166 3166 3166 3166 3165 3165 3166 3166 3166 3166 3166 3167 3167 3167 3167
3149 3149 3148 3148 3147 3147 3148 3147 3147 3148 3148 3149 3150 3149 3149 3149 3150 3150 3150 3150 3150 3151 3151 3152 3153 3153 3154 3154 3155 3155 3156 3157 3157 3158 3158 3158 3159 3159 3160 3160 3161 3161 3162 3162 3162 3161 3161 3161 3161 3161 3162 3162 3162 3162 3162 3162 3162 3164 3164 3164 3164 3164 3164 3165 3165 3166 3167 3167 3167 3167 3167 3167 3166 3166 3166 3166 3166 3166 3166 3166 3166 3166 3166 3167 3167 3167 3168 3168
3147 3148 3147 3147 3147 3147 3147 3147 3147 3147 3148 3149 3150 3150 3150 3150 3150 3150 3150 3150 3150 3151 3152 3152 3153 3153 3153 3154 3155 3155 3156 3157 3158 3158 3158 3158 3159 3160 3160 3161 3161 3162 3162 3162 3162 3162 3162 3162 3162 3162 3163 3163 3163 3162 3163 3163 3163 3164 3165 3165 3165 3165 3165 3165 3166 3166 3167 3167 3168 3168 3168 3167 3167 3167 3166 3166 3166 3166 3166 3166 3166 3166 3167 3167 3167 3168 3168 3169
3145 3146 3146 3146 3146 3146 3146 3146 3146 3147 3148 3149 3150 3151 3151 3150 3151 3151 3151 3151 3150 3151 3151 3152 3153 3153 3153 3154 3155 3155 3157 3157 3158 3158 3159 3159 3159 3160 3160 3161 3161 3162 3162 3163 3162 3163 3163 3163 3163 3164 3164 3164 3164 3164 3164 3164 3164 3164 3165 3166 3166 3166 3167 3167 3167 3168 3168 3168 3168 3168 3168 3168 3167 3167 3167 3166 3166 3166 3166 3166 3166 3167 3167 3168 3168 3168 3169 3169
3144 3145 3145 3145 3145 3145 3145 3145 3145 3146 3147 3149 3150 3151 3151 3151 3151 3151 3151 3151 3150 3150 3151 3152 3152 3153 3153 3154 3155 3156 3157 3157 3158 3158 3159 3159 3159 3160 3160 3161 3161 3162 3162 3162 3163 3163 3163 3163 3163 3164 3164 3164 3165 3165 3165 3165 3165 3165 3166 3167 3167 3168 3168 3168 3168 3168 3168 3168 3168 3168 3168 3168 3167 3167 3167 3167 3167 3167 3167 3167 3167 3167 3167 3168 3168 3169 3169 3169
3142 3144 3144 3143 3143 3144 3144 3144 3144 3145 3146 3148 3149 3151 3151 3151 3151 3151 3152 3152 3150 3149 3150 3151 3152 3153 3153 3154 3155 3156 3157 3157 3158 3159 3159 3160 3159 3160 3161 3161 3162 3162 3162 3162 3162 3163 3163 3164 3164 3164 3165 3165 3165 3166 3166 3166 3166 3166 3166 3167 3168 3169 3169 3169 3169 3169 3169 3169 3168 3168 3168 3168 3167 3167 3167 3167 3166 3167 3167 3167 3167 3167 3168 3168 3168 3169 3169 3169
3140 3142 3143 3142 3142 3142 3143 3143 3143 3144 3145 3147 3148 3150 3151 3151 3151 3151 3152 3152 3149 3148 3149 3150 3151 3152 3153 3154 3155 3156 3156 3157 3158 3158 3159 3159 3159 3160 3161 3161 3162 3162 3162 3162 3163 3163 3163 3164 3165 3165 3165 3166 3166 3167 3167 3167 3167 3167 3167 3168 3168 3169 3169 3169 3169 3169 3169 3169 3168 3168 3168 3168 3167 3166 3166 3166 3166 3166 3166 3167 3167 3167 3168 3168 3168 3169 3169 3169
3139 3140 3141 3141 3141 3141 3141 3141 3142 3143 3144 3145 3147 3149 3150 3151 3151 3152 3153 3151 3148 3148 3149 3149 3151 3152 3153 3154 3154 3155 3156 3157 3158 3158 3159 3159 3159 3160 3160 3161 3162 3162 3162 3162 3163 3163 3163 3165 3165 3166 3166 3167 3167 3167 3167 3168 3168 3168 3168 3168 3169 3169 3169 3170 3170 3169 3170 3169 3168 3167 3168 3168 3167 3166 3166 3166 3166 3166 3166 3166 3167 3167 3168 3168 3168 3168 3169 3169
3138 3139 3140 3140 3140 3139 3140 3140 3141 3142 3143 3144 3146 3147 3149 3150 3151 3152 3152 3150 3148 3148 3149 3150 3151 3152 3153 3154 3154 3155 3156 3157 3158 3158 3158 3158 3159 3160 3160 3160 3161 3162 3162 3162 3162 3162 3163 3164 3165 3165 3166 3167 3167 3168 3168 3168 3169 3168 3168 3168 3169 3169 3169 3170 3169 3170 3171 3170 3168 3167 3168 3168 3167 3166 3165 3166 3166 3166 3166 3166 3167 3167 3167 3168 3168 3168 3169 3169
3137 3138 3138 3139 3139 3138 3138 3139 3140 3141 3142 3143 3144 3146 3148 3150 3150 3149 3149 3149 3149 3149 3149 3150 3150 3151 3152 3153 3153 3154 3155 3156 3157 3158 3158 3158 3158 3159 3159 3160 3161 3161 3161 3161 3161 3162 3163 3164 3164 3165 3166 3167 3167 3167 3168 3169 3168 3168 3168 3168 3168 3170 3171 3170 3171 3171 3171 3169 3168 3168 3168 3167 3166 3165 3165 3165 3165 3166 3166 3166 3166 3167 3167 3167 3168 3168 3169 3169
3136 3137 3137 3138 3138 3137 3138 3138 3139 3140 3141 3142 3143 3145 3147 3148 3148 3147 3147 3148 3149 3148 3149 3149 3149 3150 3151 3152 3153 3154 3155 3156 3157 3158 3158 3158 3158 3158 3159 3159 3160 3161 3161 3161 3161 3161 3162 3164 3164 3164 3165 3165 3166 3166 3167 3168 3167 3167 3168 3168 3168 3170 3172 3173 3173 3172 3170 3168 3168 3168 3169 3167 3165 3164 3165 3165 3165 3165 3166 3166 3166 3166 3167 3167 3168 3168 3168 3169
3134 3135 3136 3136 3136 3137 3137 3137 3138 3139 3140 3140 3141 3143 3145 3146 3145 3145 3147 3148 3148 3148 3149 3149 3149 3150 3150 3151 3152 3153 3154 3155 3156 3157 3158 3158 3158 3158 3158 3158 3158 3159 3160 3161 3161 3161 3161 3162 3161 3161 3162 3163 3164 3165 3166 3167 3167 3167 3168 3168 3168 3169 3170 3171 3171 3170 3169 3169 3168 3168 3168 3166 3164 3164 3164 3164 3164 3164 3165 3166 3166 3166 3166 3167 3167 3168 3168 3169
3133 3133 3134 3135 3135 3136 3137 3136 3137 3138 3138 3139 3140 3141 3142 3142 3144 3145 3146 3147 3148 3148 3149 3149 3149 3149 3150 3150 3151 3152 3153 3154 3155 3156 3157 3157 3157 3156 3157 3157 3157 3158 3159 3160 3160 3160 3160 3160 3160 3160 3161 3162 3164 3165 3167 3168 3168 3168 3169 3168 3168 3168 3168 3169 3170 3169 3169 3169 3169 3168 3167 3165 3164 3164 3164 3164 3164 3164 3164 3165 3166 3166 3166 3167 3167 3168 3169 3169
3131 3132 3132 3133 3134 3135 3135 3135 3135 3136 3137 3138 3138 3138 3139 3141 3143 3144 3145 3146 3147 3148 3148 3148 3148 3149 3149 3150 3151 3152 3152 3153 3154 3155 3155 3156 3155 3155 3155 3156 3156 3157 3157 3158 3158 3159 3159 3159 3160 3160 3161 3162 3164 3165 3167 3168 3168 3169 3169 3168 3168 3168 3168 3169 3169 3169 3169 3169 3168 3167 3165 3164 3163 3163 3162 3163 3163 3163 3164 3164 3165 3166 3166 3167 3168 3168 3169 3169
3129 3130 3130 3131 3133 3133 3134 3134 3134 3134 3135 3136 3136 3137 3138 3141 3142 3143 3145 3146 3146 3147 3148 3148 3148 3148 3149 3149 3150 3151 3152 3152 3153 3154 3154 3154 3154 3154 3154 3155 3155 3156 3156 3157 3157 3158 3158 3159 3159 3160 3161 3162 3164 3166 3167 3167 3168 3168 3168 3168 3168 3168 3168 3168 3169 3170 3171 3170 3168 3166 3165 3163 3163 3162 3161 3161 3161 3162 3163 3164 3165 3165 3166 3167 3167 3168 3169 3169
3127 3128 3128 3129 3131 3132 3132 3132 3132 3133 3134 3134 3135 3136 3138 3139 3141 3143 3144 3145 3146 3146 3147 3147 3147 3147 3148 3149 3149 3150 3151 3151 3152 3152 3153 3153 3153 3153 3153 3154 3154 3155 3155 3156 3156 3157 3158 3159 3159 3160 3161 3162 3163 3165 3166 3166 3167 3168 3168 3168 3168 3168 3168 3168 3168 3169 3170 3171 3169 3165 3164 3163 3161 3160 3160 3160 3160 3161 3162 3163 3164 3165 3166 3166 3167 3168 3169 3169
3126 3126 3127 3127 3129 3130 3130 3131 3131 3131 3132 3132 3133 3135 3136 3138 3140 3141 3143 3144 3145 3145 3146 3147 3147 3147 3147 3148 3148 3148 3149 3150 3151 3151 3152 3152 3152 3152 3152 3153 3154 3154 3155 3155 3155 3156 3157 3158 3159 3159 3160 3162 3163 3164 3164 3164 3165 3167 3167 3167 3167 3167 3167 3167 3167 3167 3167 3170 3170 3166 3163 3161 3160 3159 3159 3159 3160 3161 3162 3162 3163 3164 3166 3166 3167 3168 3169 3169
3124 3125 3125 3126 3127 3128 3128 3129 3129 3130 3130 3131 3132 3134 3135 3137 3138 3140 3141 3142 3143 3144 3145 3146 3146 3147 3147 3147 3147 3148 3148 3149 3150 3150 3150 3151 3151 3151 3152 3152 3153 3153 3154 3154 3155 3156 3157 3157 3158 3159 3160 3161 3161 3161 3161 3161 3163 3164 3165 3166 3166 3167 3167 3167 3167 3167 3167 3168 3169 3168 3164 3161 3160 3160 3159 3159 3160 3160 3161 3162 3163 3164 3165 3166 3167 3168 3169 3169
3122 3123 3124 3124 3125 3126 3127 3127 3128 3128 3128 3129 3131 3133 3134 3135 3137 3138 3140 3141 3142 3143 3144 3145 3145 3146 3146 3146 3146 3147 3147 3148 3148 3149 3149 3149 3150 3151 3151 3152 3152 3153 3153 3153 3154 3155 3156 3156 3157 3158 3158 3159 3158 3159 3160 3161 3162 3163 3164 3165 3165 3166 3167 3167 3167 3166 3166 3166 3167 3168 3164 3160 3160 3160 3159 3159 3160 3160 3161 3162 3162 3164 3165 3166 3167 3167 3168 3169
3120 3121 3122 3123 3124 3124 3125 3126 3126 3127 3127 3128 3130 3132 3133 3134 3135 3136 3138 3139 3140 3141 3142 3143 3144 3145 3145 3145 3146 3146 3147 3147 3147 3148 3148 3148 3149 3149 3151 3152 3152 3152 3153 3153 3153 3154 3155 3155 3156 3157 3157 3158 3158 3159 3160 3161 3162 3163 3163 3164 3165 3165 3165 3166 3166 3165 3165 3165 3165 3166 3164 3161 3160 3160 3160 3159 3159 3160 3161 3162 3162 3163 3164 3165 3166 3167 3167 3168
3119 3120 3120 3121 3122 3123 3124 3124 3124 3125 3126 3127 3129 3130 3131 3132 3133 3134 3136 3138 3139 3140 3141 3142 3143 3144 3144 3145 3145 3146 3146 3145 3146 3147 3147 3147 3148 3148 3150 3151 3151 3151 3152 3152 3153 3153 3154 3155 3155 3156 3157 3158 3158 3159 3159 3160 3161 3162 3162 3162 3162 3163 3163 3165 3165 3164 3164 3164 3164 3165 3164 3160 3159 3160 3160 3159 3159 3159 3160 3161 3162 3163 3163 3164 3165 3166 3167 3167
3117 3118 3118 3119 3120 3121 3122 3123 3123 3124 3125 3126 3127 3128 3129 3130 3131 3132 3134 3136 3137 3138 3139 3140 3142 3143 3143 3144 3144 3144 3144 3144 3144 3145 3146 3146 3146 3147 3149 3150 3150 3150 3151 3151 3152 3152 3153 3154 3155 3156 3157 3158 3159 3159 3159 3159 3159 3160 3160 3160 3160 3161 3162 3163 3164 3164 3163 3162 3163 3164 3162 3159 3159 3160 3159 3159 3159 3159 3159 3159 3160 3162 3163 3163 3164 3165 3165 3166
3115 3116 3116 3117 3118 3119 3120 3121 3122 3123 3124 3125 3125 3126 3127 3128 3129 3131 3132 3134 3135 3137 3137 3139 3140 3141 3142 3142 3142 3142 3143 3144 3144 3144 3144 3145 3145 3146 3147 3148 3149 3149 3150 3151 3151 3152 3152 3153 3154 3154 3156 3157 3158 3158 3157 3157 3158 3158 3158 3159 3159 3159 3160 3162 3163 3162 3162 3161 3162 3162 3160 3159 3159 3159 3159 3159 3158 3158 3158 3158 3159 3160 3161 3162 3163 3163 3164 3165
3113 3114 3115 3115 3116 3117 3118 3119 3120 3121 3122 3123 3123 3124 3126 3127 3128 3129 3130 3132 3134 3135 3136 3137 3139 3140 3141 3141 3141 3141 3142 3143 3143 3143 3143 3143 3144 3145 3145 3147 3148 3148 3149 3150 3150 3151 3151 3152 3153 3153 3153 3154 3155 3155 3155 3156 3157 3157 3157 3157 3158 3158 3159 3160 3161 3160 3160 3160 3160 3160 3159 3159 3158 3158 3158 3158 3157 3157 3157 3157 3158 3159 3160 3161 3162 3162 3163 3164
3111 3112 3113 3114 3114 3115 3116 3117 3118 3119 3120 3121 3122 3123 3124 3125 3127 3128 3129 3131 3132 3133 3134 3135 3137 3138 3139 3140 3141 3141 3141 3141 3141 3141 3142 3142 3143 3143 3144 3145 3147 3147 3148 3149 3149 3150 3150 3151 3151 3152 3153 3153 3154 3154 3155 3155 3156 3156 3157 3156 3157 3157 3157 3158 3158 3159 3159 3159 3159 3159 3159 3158 3157 3157 3157 3157 3156 3156 3155 3156 3156 3157 3159 3160 3161 3161 3162 3163
3108 3109 3111 3112 3112 3113 3113 3115 3116 3117 3118 3119 3120 3121 3122 3124 3125 3126 3128 3129 3130 3131 3132 3133 3135 3136 3138 3139 3140 3140 3140 3140 3140 3140 3141 3141 3142 3142 3143 3144 3145 3146 3147 3148 3149 3149 3149 3149 3150 3151 3151 3152 3153 3153 3153 3154 3154 3155 3155 3156 3156 3156 3156 3156 3157 3157 3158 3158 3157 3158 3158 3157 3157 3156 3156 3156 3155 3154 3154 3154 3155 3156 3157 3158 3159 3160 3161 3161
3106 3107 3108 3110 3110 3111 3112 3113 3114 3115 3116 3117 3118 3119 3120 3122 3123 3125 3126 3126 3127 3129 3130 3131 3133 3135 3136 3137 3138 3138 3139 3139 3139 3139 3140 3141 3141 3141 3142 3143 3144 3145 3146 3147 3148 3148 3148 3148 3149 3150 3150 3151 3151 3151 3152 3152 3153 3153 3154 3154 3155 3155 3155 3155 3155 3156 3156 3156 3156 3156 3156 3156 3156 3155 3155 3155 3154 3153 3153 3153 3153 3154 3155 3157 3158 3159 3160 3160
3103 3104 3106 3107 3108 3109 3110 3111 3112 3113 3114 3115 3116 3118 3119 3120 3121 3122 3123 3123 3125 3126 3128 3129 3132 3133 3134 3135 3136 3137 3137 3138 3138 3138 3139 3140 3140 3141 3141 3142 3142 3144 3145 3146 3147 3147 3147 3148 3148 3149 3149 3150 3150 3150 3151 3151 3151 3151 3152 3152 3153 3153 3153 3153 3154 3154 3154 3154 3155 3155 3154 3154 3154 3154 3154 3153 3153 3152 3152 3152 3152 3153 3154 3155 3156 3157 3158 3159
3100 3102 3103 3104 3105 3106 3108 3109 3110 3111 3112 3113 3114 3116 3117 3118 3119 3119 3120 3121 3123 3125 3127 3128 3130 3130 3131 3132 3133 3135 3136 3137 3137 3137 3138 3139 3140 3140 3141 3141 3142 3143 3144 3144 3145 3146 3146 3147 3147 3148 3148 3148 3149 3149 3149 3150 3149 3149 3149 3150 3151 3151 3151 3151 3152 3152 3153 3153 3153 3153 3152 3153 3153 3153 3152 3152 3152 3151 3150 3150 3151 3152 3153 3154 3155 3156 3157 3158
3098 3099 3100 3101 3102 3103 3105 3106 3107 3109 3110 3111 3112 3113 3114 3116 3117 3117 3118 3120 3122 3124 3126 3126 3127 3127 3128 3129 3131 3133 3135 3135 3135 3136 3136 3137 3138 3139 3140 3140 3141 3142 3142 3143 3144 3145 3145 3146 3146 3147 3147 3147 3148 3148 3148 3148 3148 3148 3147 3148 3148 3149 3149 3149 3150 3150 3151 3151 3151 3151 3151 3151 3151 3151 3151 3151 3150 3150 3149 3149 3150 3150 3151 3152 3153 3155 3156 3157